Total_Precipitation_Accumulation
0.04 0.05 0.04 0.05 0.04 0.03 0.04 0.04 0.03 0.02 0.02 0.03 0.02 0.02 0.03 0.03 0.03 0.02 0.02 0.02 0.02 0.03 0.04 0.02 0.02 0.02 0.01 0.02 0.00 0.00 0.00 0.01 0.00 0.00 0.00 0.00 0.00 0.00 0.00 0.00 0.00 0.00 0.00 0.00 0.00 0.00 0.00 0.00 0.00 0.00 0.00 0.00 0.00 0.00 0.00 0.00 0.00 0.00 0.00 0.00 0.00 0.00 0.00 0.00 0.00 0.00 0.00 0.00 0.00 0.00 0.00 0.00 0.00 0.00 0.00 0.00 0.00 0.00 0.00 0.00 0.01 0.02 0.05 0.13 0.08 0.15 0.07 0.14
0.05 0.04 0.04 0.05 0.03 0.04 0.03 0.03 0.02 0.02 0.02 0.01 0.02 0.02 0.03 0.03 0.04 0.03 0.02 0.02 0.03 0.02 0.01 0.02 0.01 0.01 0.01 0.00 0.00 0.00 0.00 0.00 0.00 0.00 0.00 0.00 0.00 0.00 0.00 0.00 0.00 0.00 0.00 0.00 0.00 0.00 0.00 0.00 0.00 0.00 0.00 0.00 0.00 0.00 0.00 0.00 0.00 0.00 0.00 0.00 0.00 0.00 0.00 0.00 0.00 0.00 0.00 0.00 0.00 0.00 0.00 0.00 0.00 0.00 0.00 0.01 0.00 0.00 0.00 0.01 0.01 0.05 0.14 0.19 0.21 0.18 0.14 0.16
0.04 0.05 0.05 0.04 0.04 0.03 0.03 0.01 0.02 0.01 0.02 0.02 0.02 0.04 0.03 0.02 0.03 0.03 0.02 0.02 0.02 0.01 0.01 0.00 0.01 0.00 0.00 0.00 0.00 0.00 0.00 0.00 0.00 0.00 0.00 0.00 0.00 0.00 0.00 0.00 0.00 0.00 0.00 0.00 0.00 0.00 0.00 0.00 0.00 0.00 0.00 0.00 0.00 0.00 0.00 0.00 0.00 0.00 0.00 0.00 0.00 0.00 0.00 0.00 0.00 0.00 0.00 0.00 0.00 0.00 0.00 0.00 0.00 0.00 0.00 0.01 0.01 0.00 0.00 0.03 0.02 0.07 0.24 0.19 0.26 0.17 0.21 0.34
0.05 0.04 0.04 0.05 0.04 0.03 0.02 0.02 0.01 0.02 0.03 0.04 0.03 0.03 0.03 0.02 0.02 0.02 0.02 0.02 0.01 0.01 0.01 0.01 0.00 0.00 0.00 0.00 0.00 0.00 0.00 0.00 0.00 0.00 0.00 0.00 0.00 0.00 0.00 0.00 0.00 0.00 0.00 0.00 0.00 0.00 0.00 0.00 0.00 0.00 0.00 0.00 0.00 0.00 0.00 0.00 0.00 0.00 0.00 0.00 0.00 0.00 0.00 0.00 0.00 0.00 0.00 0.00 0.00 0.00 0.00 0.00 0.00 0.00 0.00 0.00 0.00 0.03 0.01 0.00 0.03 0.10 0.20 0.19 0.21 0.28 0.20 0.34
0.04 0.04 0.03 0.03 0.03 0.03 0.02 0.02 0.02 0.03 0.03 0.03 0.03 0.02 0.03 0.01 0.02 0.01 0.01 0.01 0.01 0.01 0.01 0.01 0.01 0.00 0.00 0.00 0.00 0.00 0.00 0.00 0.00 0.00 0.00 0.00 0.00 0.00 0.00 0.00 0.00 0.00 0.00 0.00 0.00 0.00 0.00 0.00 0.00 0.00 0.00 0.00 0.00 0.00 0.00 0.00 0.00 0.00 0.00 0.00 0.00 0.00 0.00 0.00 0.00 0.00 0.00 0.00 0.00 0.00 0.00 0.00 0.00 0.00 0.00 0.00 0.00 0.01 0.00 0.03 0.01 0.06 0.03 0.17 0.23 0.20 0.15 0.27
0.04 0.04 0.04 0.04 0.04 0.03 0.03 0.02 0.02 0.03 0.03 0.02 0.02 0.02 0.01 0.02 0.01 0.02 0.01 0.01 0.01 0.01 0.01 0.01 0.00 0.00 0.00 0.00 0.00 0.00 0.00 0.00 0.00 0.00 0.00 0.00 0.00 0.00 0.00 0.00 0.00 0.00 0.00 0.00 0.00 0.00 0.00 0.00 0.00 0.00 0.00 0.00 0.00 0.00 0.00 0.00 0.00 0.00 0.00 0.00 0.00 0.00 0.00 0.00 0.00 0.00 0.00 0.00 0.00 0.00 0.00 0.00 0.00 0.00 0.00 0.00 0.00 0.00 0.00 0.00 0.00 0.03 0.05 0.10 0.09 0.12 0.21 0.28
0.03 0.04 0.03 0.04 0.03 0.03 0.02 0.03 0.02 0.02 0.02 0.02 0.02 0.02 0.02 0.04 0.02 0.02 0.02 0.02 0.01 0.01 0.01 0.01 0.00 0.00 0.00 0.00 0.00 0.00 0.00 0.00 0.00 0.00 0.00 0.00 0.00 0.00 0.00 0.00 0.00 0.00 0.00 0.00 0.00 0.00 0.00 0.00 0.00 0.00 0.00 0.00 0.00 0.00 0.00 0.00 0.00 0.00 0.00 0.00 0.00 0.00 0.00 0.00 0.00 0.00 0.00 0.00 0.00 0.00 0.00 0.00 0.00 0.00 0.00 0.00 0.00 0.00 0.00 0.00 0.01 0.04 0.11 0.11 0.14 0.10 0.09 0.20
0.03 0.03 0.03 0.03 0.03 0.03 0.03 0.03 0.02 0.01 0.01 0.02 0.02 0.03 0.02 0.02 0.03 0.01 0.01 0.01 0.01 0.01 0.01 0.00 0.00 0.00 0.00 0.00 0.00 0.00 0.00 0.00 0.00 0.00 0.00 0.00 0.00 0.00 0.00 0.00 0.00 0.00 0.00 0.00 0.00 0.00 0.00 0.00 0.00 0.00 0.00 0.00 0.00 0.00 0.00 0.00 0.00 0.00 0.00 0.00 0.00 0.00 0.00 0.00 0.00 0.00 0.00 0.00 0.00 0.00 0.00 0.00 0.00 0.00 0.00 0.00 0.00 0.00 0.00 0.00 0.01 0.04 0.05 0.16 0.15 0.15 0.23 0.33
0.03 0.02 0.03 0.02 0.02 0.02 0.03 0.02 0.01 0.01 0.02 0.02 0.02 0.02 0.02 0.01 0.01 0.01 0.01 0.01 0.01 0.01 0.01 0.01 0.00 0.00 0.00 0.00 0.00 0.00 0.00 0.00 0.00 0.00 0.00 0.00 0.00 0.00 0.00 0.00 0.00 0.00 0.00 0.00 0.00 0.00 0.00 0.00 0.00 0.00 0.00 0.00 0.00 0.00 0.00 0.00 0.00 0.00 0.00 0.00 0.00 0.00 0.00 0.00 0.00 0.00 0.00 0.00 0.00 0.00 0.00 0.00 0.00 0.00 0.00 0.00 0.00 0.00 0.00 0.01 0.01 0.04 0.15 0.17 0.20 0.22 0.27 0.37
0.02 0.03 0.02 0.02 0.02 0.02 0.02 0.02 0.01 0.03 0.03 0.03 0.02 0.02 0.02 0.01 0.01 0.02 0.01 0.01 0.01 0.01 0.01 0.00 0.00 0.00 0.00 0.00 0.00 0.00 0.00 0.00 0.00 0.00 0.00 0.00 0.00 0.00 0.00 0.00 0.00 0.00 0.00 0.00 0.00 0.00 0.00 0.00 0.00 0.00 0.00 0.00 0.00 0.00 0.00 0.00 0.00 0.00 0.00 0.00 0.00 0.00 0.00 0.00 0.00 0.00 0.00 0.00 0.00 0.00 0.00 0.00 0.00 0.00 0.00 0.00 0.00 0.00 0.00 0.01 0.03 0.02 0.11 0.18 0.14 0.32 0.49 0.38
0.02 0.02 0.02 0.02 0.02 0.02 0.02 0.02 0.02 0.02 0.02 0.02 0.02 0.02 0.01 0.01 0.01 0.01 0.01 0.00 0.01 0.01 0.01 0.00 0.00 0.00 0.00 0.00 0.00 0.00 0.00 0.00 0.00 0.00 0.00 0.00 0.00 0.00 0.00 0.00 0.00 0.00 0.00 0.00 0.00 0.00 0.00 0.00 0.00 0.00 0.00 0.00 0.00 0.00 0.00 0.00 0.00 0.00 0.00 0.00 0.00 0.00 0.00 0.00 0.00 0.00 0.00 0.00 0.00 0.00 0.00 0.00 0.00 0.00 0.00 0.00 0.00 0.00 0.00 0.01 0.03 0.04 0.15 0.18 0.18 0.19 0.21 0.22
0.02 0.02 0.02 0.01 0.03 0.02 0.01 0.02 0.02 0.01 0.01 0.02 0.02 0.02 0.02 0.01 0.01 0.01 0.01 0.01 0.00 0.01 0.00 0.00 0.01 0.03 0.01 0.00 0.00 0.00 0.00 0.00 0.00 0.00 0.00 0.00 0.00 0.00 0.00 0.00 0.00 0.00 0.00 0.00 0.00 0.00 0.00 0.00 0.00 0.00 0.00 0.00 0.00 0.00 0.00 0.00 0.00 0.00 0.00 0.00 0.00 0.00 0.00 0.00 0.00 0.00 0.00 0.00 0.00 0.00 0.00 0.00 0.00 0.00 0.00 0.00 0.01 0.00 0.00 0.02 0.03 0.09 0.12 0.17 0.17 0.23 0.25 0.21
0.02 0.03 0.02 0.02 0.02 0.03 0.01 0.01 0.01 0.02 0.01 0.01 0.01 0.01 0.01 0.01 0.01 0.01 0.01 0.00 0.00 0.00 0.00 0.01 0.00 0.01 0.00 0.00 0.00 0.00 0.00 0.00 0.00 0.00 0.00 0.00 0.00 0.00 0.00 0.00 0.00 0.00 0.00 0.00 0.00 0.00 0.00 0.00 0.00 0.00 0.00 0.00 0.00 0.00 0.00 0.00 0.00 0.00 0.00 0.00 0.00 0.00 0.00 0.00 0.00 0.00 0.00 0.00 0.00 0.00 0.00 0.00 0.00 0.00 0.00 0.01 0.01 0.01 0.01 0.03 0.06 0.09 0.10 0.15 0.19 0.37 0.32 0.41
0.04 0.02 0.02 0.03 0.02 0.01 0.01 0.01 0.01 0.01 0.01 0.01 0.01 0.01 0.01 0.01 0.01 0.01 0.00 0.00 0.00 0.01 0.01 0.01 0.01 0.02 0.02 0.00 0.00 0.00 0.00 0.00 0.00 0.00 0.00 0.00 0.00 0.00 0.00 0.00 0.00 0.00 0.00 0.00 0.00 0.00 0.00 0.00 0.00 0.00 0.00 0.00 0.00 0.00 0.00 0.00 0.00 0.00 0.00 0.00 0.00 0.00 0.00 0.00 0.00 0.00 0.00 0.00 0.00 0.00 0.00 0.00 0.00 0.00 0.00 0.01 0.00 0.00 0.01 0.02 0.06 0.08 0.11 0.17 0.22 0.29 0.31 0.50
0.02 0.02 0.02 0.02 0.02 0.01 0.02 0.01 0.01 0.01 0.01 0.01 0.00 0.01 0.00 0.00 0.00 0.01 0.01 0.01 0.02 0.00 0.01 0.07 0.03 0.01 0.01 0.00 0.00 0.00 0.00 0.00 0.00 0.00 0.00 0.00 0.00 0.00 0.00 0.00 0.00 0.00 0.00 0.00 0.00 0.00 0.00 0.00 0.00 0.00 0.00 0.00 0.00 0.00 0.00 0.00 0.00 0.00 0.00 0.00 0.00 0.00 0.00 0.00 0.00 0.00 0.00 0.00 0.00 0.00 0.00 0.00 0.00 0.00 0.00 0.01 0.01 0.01 0.00 0.03 0.12 0.09 0.08 0.14 0.16 0.33 0.27 0.39
0.03 0.02 0.02 0.02 0.01 0.01 0.00 0.02 0.01 0.01 0.00 0.01 0.01 0.01 0.00 0.01 0.01 0.00 0.00 0.00 0.01 0.01 0.01 0.01 0.01 0.01 0.00 0.00 0.00 0.00 0.00 0.00 0.00 0.00 0.00 0.00 0.00 0.00 0.00 0.00 0.00 0.00 0.00 0.00 0.00 0.00 0.00 0.00 0.00 0.00 0.00 0.00 0.00 0.00 0.00 0.00 0.00 0.00 0.00 0.00 0.00 0.00 0.00 0.00 0.00 0.00 0.00 0.00 0.00 0.00 0.00 0.00 0.00 0.00 0.00 0.01 0.01 0.01 0.01 0.03 0.09 0.07 0.08 0.14 0.15 0.14 0.15 0.22
0.03 0.03 0.02 0.01 0.01 0.01 0.01 0.01 0.01 0.00 0.01 0.00 0.01 0.00 0.01 0.00 0.00 0.00 0.01 0.01 0.02 0.02 0.05 0.00 0.00 0.01 0.01 0.00 0.00 0.00 0.00 0.00 0.00 0.00 0.00 0.00 0.00 0.00 0.00 0.00 0.00 0.00 0.00 0.00 0.00 0.00 0.00 0.00 0.00 0.00 0.00 0.00 0.00 0.00 0.00 0.00 0.00 0.00 0.00 0.00 0.00 0.00 0.00 0.01 0.00 0.00 0.00 0.00 0.00 0.00 0.00 0.00 0.00 0.00 0.00 0.02 0.01 0.01 0.01 0.02 0.09 0.11 0.13 0.12 0.16 0.17 0.12 0.11
0.02 0.02 0.01 0.01 0.01 0.01 0.01 0.00 0.02 0.01 0.01 0.00 0.01 0.01 0.00 0.00 0.01 0.00 0.01 0.01 0.01 0.01 0.01 0.00 0.00 0.00 0.00 0.00 0.00 0.00 0.00 0.00 0.00 0.00 0.00 0.00 0.00 0.00 0.00 0.00 0.00 0.00 0.00 0.00 0.00 0.00 0.00 0.00 0.00 0.00 0.00 0.00 0.00 0.00 0.00 0.01 0.00 0.00 0.00 0.00 0.00 0.00 0.00 0.00 0.00 0.00 0.00 0.00 0.00 0.00 0.00 0.00 0.00 0.00 0.00 0.00 0.01 0.01 0.01 0.01 0.07 0.11 0.16 0.12 0.07 0.33 0.25 0.12
0.02 0.01 0.01 0.01 0.01 0.01 0.00 0.01 0.01 0.01 0.00 0.00 0.00 0.01 0.00 0.01 0.01 0.00 0.00 0.01 0.00 0.00 0.00 0.01 0.00 0.00 0.01 0.00 0.00 0.00 0.00 0.00 0.00 0.00 0.00 0.00 0.00 0.00 0.00 0.00 0.00 0.00 0.00 0.00 0.00 0.00 0.00 0.00 0.00 0.00 0.00 0.00 0.00 0.00 0.00 0.00 0.00 0.00 0.01 0.02 0.00 0.00 0.00 0.00 0.00 0.00 0.00 0.00 0.00 0.00 0.00 0.00 0.00 0.00 0.00 0.01 0.01 0.01 0.01 0.02 0.04 0.10 0.11 0.11 0.21 0.49 0.47 0.29
0.01 0.02 0.01 0.01 0.01 0.00 0.01 0.00 0.01 0.01 0.01 0.01 0.00 0.00 0.00 0.00 0.03 0.00 0.00 0.02 0.00 0.00 0.00 0.00 0.00 0.00 0.00 0.00 0.00 0.00 0.00 0.00 0.00 0.00 0.00 0.00 0.00 0.00 0.00 0.00 0.00 0.00 0.00 0.00 0.00 0.00 0.00 0.00 0.00 0.00 0.00 0.00 0.00 0.00 0.00 0.00 0.00 0.00 0.00 0.00 0.01 0.00 0.01 0.00 0.00 0.00 0.00 0.00 0.00 0.00 0.00 0.00 0.00 0.00 0.00 0.00 0.01 0.01 0.01 0.02 0.05 0.08 0.06 0.04 0.05 0.06 0.39 0.68
0.02 0.02 0.01 0.01 0.01 0.01 0.00 0.01 0.00 0.00 0.01 0.04 0.00 0.00 0.00 0.01 0.00 0.03 0.01 0.00 0.00 0.00 0.00 0.00 0.00 0.00 0.00 0.00 0.00 0.00 0.00 0.00 0.00 0.00 0.00 0.00 0.00 0.00 0.00 0.00 0.00 0.00 0.00 0.00 0.01 0.00 0.00 0.00 0.00 0.00 0.00 0.00 0.00 0.00 0.00 0.00 0.00 0.00 0.00 0.00 0.00 0.00 0.00 0.00 0.00 0.00 0.00 0.00 0.00 0.00 0.00 0.00 0.00 0.00 0.00 0.01 0.01 0.01 0.01 0.01 0.01 0.03 0.01 0.04 0.02 0.07 0.19 0.54
0.01 0.01 0.01 0.01 0.01 0.01 0.01 0.01 0.01 0.01 0.02 0.01 0.00 0.00 0.00 0.00 0.00 0.00 0.00 0.00 0.00 0.00 0.00 0.00 0.00 0.00 0.00 0.00 0.00 0.00 0.00 0.00 0.00 0.00 0.00 0.00 0.00 0.00 0.00 0.00 0.00 0.00 0.00 0.00 0.00 0.00 0.00 0.00 0.00 0.00 0.00 0.00 0.00 0.00 0.00 0.00 0.00 0.00 0.00 0.00 0.00 0.00 0.00 0.00 0.00 0.00 0.00 0.00 0.00 0.00 0.00 0.00 0.00 0.00 0.00 0.00 0.01 0.01 0.00 0.00 0.01 0.01 0.01 0.02 0.02 0.05 0.23 0.63
0.01 0.01 0.01 0.02 0.01 0.01 0.01 0.01 0.01 0.01 0.00 0.00 0.00 0.00 0.00 0.00 0.00 0.00 0.00 0.00 0.00 0.00 0.00 0.00 0.00 0.00 0.00 0.00 0.00 0.00 0.00 0.00 0.00 0.00 0.00 0.00 0.00 0.00 0.00 0.00 0.00 0.00 0.00 0.00 0.00 0.00 0.00 0.00 0.00 0.00 0.00 0.00 0.00 0.00 0.00 0.00 0.00 0.00 0.00 0.00 0.00 0.00 0.00 0.04 0.00 0.00 0.00 0.00 0.00 0.00 0.00 0.00 0.00 0.00 0.00 0.00 0.00 0.01 0.01 0.00 0.01 0.01 0.00 0.01 0.02 0.03 0.09 0.08
0.01 0.01 0.01 0.01 0.01 0.01 0.00 0.01 0.01 0.01 0.01 0.00 0.00 0.00 0.00 0.00 0.00 0.00 0.00 0.00 0.01 0.00 0.00 0.00 0.00 0.00 0.00 0.00 0.00 0.00 0.00 0.00 0.00 0.00 0.00 0.00 0.00 0.00 0.00 0.00 0.00 0.00 0.00 0.00 0.00 0.00 0.01 0.01 0.00 0.00 0.00 0.00 0.00 0.00 0.00 0.00 0.00 0.00 0.00 0.00 0.00 0.00 0.01 0.00 0.05 0.00 0.00 0.00 0.00 0.00 0.00 0.00 0.00 0.00 0.00 0.00 0.00 0.00 0.00 0.01 0.01 0.01 0.00 0.01 0.03 0.10 0.10 0.12
0.00 0.01 0.01 0.01 0.01 0.00 0.00 0.00 0.00 0.01 0.00 0.00 0.00 0.00 0.00 0.00 0.00 0.00 0.00 0.00 0.00 0.00 0.00 0.00 0.00 0.00 0.00 0.00 0.00 0.00 0.00 0.00 0.00 0.00 0.00 0.00 0.00 0.00 0.00 0.00 0.00 0.00 0.00 0.00 0.00 0.00 0.00 0.01 0.01 0.00 0.00 0.00 0.00 0.00 0.00 0.00 0.00 0.00 0.00 0.00 0.00 0.00 0.00 0.00 0.00 0.00 0.00 0.01 0.00 0.00 0.02 0.02 0.01 0.00 0.00 0.00 0.00 0.03 0.00 0.00 0.00 0.00 0.02 0.02 0.06 0.12 0.10 0.18
0.01 0.01 0.01 0.02 0.00 0.01 0.00 0.00 0.01 0.00 0.00 0.00 0.00 0.00 0.00 0.00 0.00 0.00 0.01 0.03 0.21 0.12 0.00 0.00 0.00 0.00 0.00 0.00 0.00 0.00 0.00 0.00 0.00 0.00 0.00 0.00 0.00 0.00 0.00 0.00 0.00 0.01 0.00 0.00 0.00 0.00 0.01 0.00 0.00 0.00 0.00 0.00 0.00 0.00 0.00 0.00 0.00 0.00 0.05 0.00 0.00 0.00 0.00 0.00 0.00 0.00 0.04 0.07 0.06 0.00 0.03 0.05 0.01 0.01 0.00 0.00 0.00 0.01 0.00 0.02 0.01 0.04 0.11 0.08 0.12 0.15 0.35 0.39
0.01 0.01 0.02 0.01 0.01 0.01 0.00 0.00 0.00 0.00 0.00 0.01 0.00 0.00 0.00 0.00 0.00 0.00 0.02 0.23 0.13 0.02 0.03 0.00 0.00 0.00 0.00 0.00 0.00 0.00 0.01 0.02 0.00 0.00 0.00 0.00 0.00 0.00 0.00 0.00 0.00 0.00 0.00 0.00 0.00 0.00 0.00 0.00 0.00 0.00 0.00 0.00 0.00 0.00 0.00 0.00 0.01 0.03 0.04 0.00 0.00 0.00 0.00 0.01 0.00 0.00 0.06 0.01 0.01 0.00 0.01 0.05 0.06 0.04 0.00 0.01 0.01 0.02 0.02 0.03 0.02 0.09 0.09 0.11 0.24 0.21 0.18 0.42
0.01 0.01 0.01 0.01 0.01 0.02 0.09 0.03 0.00 0.00 0.00 0.00 0.00 0.00 0.00 0.00 0.00 0.00 0.11 0.13 0.04 0.00 0.06 0.00 0.00 0.00 0.00 0.00 0.00 0.00 0.01 0.00 0.00 0.00 0.00 0.00 0.00 0.00 0.00 0.00 0.00 0.00 0.00 0.00 0.01 0.02 0.00 0.00 0.00 0.00 0.00 0.00 0.00 0.00 0.00 0.00 0.00 0.07 0.00 0.00 0.01 0.00 0.04 0.00 0.00 0.02 0.06 0.02 0.09 0.01 0.01 0.01 0.06 0.03 0.00 0.01 0.02 0.02 0.05 0.03 0.10 0.05 0.08 0.18 0.21 0.23 0.36 0.37
0.01 0.01 0.01 0.01 0.01 0.01 0.01 0.01 0.01 0.00 0.00 0.00 0.00 0.00 0.00 0.00 0.00 0.03 0.44 0.16 0.13 0.00 0.00 0.05 0.00 0.00 0.00 0.00 0.00 0.00 0.00 0.00 0.00 0.00 0.00 0.00 0.00 0.00 0.00 0.00 0.00 0.00 0.00 0.00 0.02 0.01 0.00 0.00 0.00 0.00 0.00 0.00 0.00 0.00 0.00 0.00 0.02 0.00 0.00 0.00 0.00 0.00 0.00 0.00 0.01 0.01 0.05 0.01 0.04 0.05 0.05 0.04 0.03 0.04 0.01 0.01 0.02 0.10 0.09 0.11 0.06 0.12 0.09 0.13 0.17 0.26 0.23 0.48
0.01 0.00 0.02 0.01 0.01 0.01 0.01 0.01 0.00 0.00 0.00 0.00 0.00 0.00 0.00 0.00 0.12 0.10 0.13 0.02 0.00 0.25 0.00 0.00 0.00 0.00 0.00 0.00 0.00 0.00 0.00 0.00 0.00 0.00 0.00 0.00 0.00 0.00 0.00 0.00 0.00 0.00 0.00 0.00 0.00 0.00 0.00 0.00 0.00 0.00 0.00 0.00 0.00 0.00 0.00 0.00 0.00 0.00 0.00 0.00 0.01 0.00 0.01 0.00 0.00 0.03 0.03 0.04 0.02 0.01 0.04 0.01 0.08 0.17 0.11 0.19 0.06 0.09 0.11 0.16 0.12 0.07 0.11 0.12 0.16 0.30 0.39 0.62
0.01 0.01 0.02 0.02 0.08 0.00 0.00 0.00 0.00 0.00 0.00 0.00 0.00 0.00 0.00 0.03 0.20 0.08 0.02 0.13 0.00 0.06 0.00 0.00 0.01 0.00 0.00 0.00 0.06 0.00 0.00 0.00 0.00 0.00 0.00 0.00 0.00 0.00 0.00 0.00 0.00 0.00 0.00 0.02 0.00 0.00 0.00 0.00 0.00 0.00 0.00 0.00 0.00 0.00 0.00 0.00 0.00 0.00 0.00 0.02 0.01 0.03 0.01 0.02 0.06 0.05 0.10 0.01 0.03 0.03 0.01 0.11 0.06 0.19 0.14 0.10 0.08 0.09 0.10 0.17 0.09 0.27 0.10 0.12 0.12 0.29 0.44 0.44
0.01 0.02 0.01 0.10 0.03 0.03 0.02 0.00 0.00 0.00 0.00 0.00 0.00 0.00 0.12 0.22 0.05 0.07 0.02 0.00 0.14 0.20 0.06 0.04 0.00 0.00 0.00 0.00 0.00 0.00 0.05 0.00 0.00 0.00 0.03 0.00 0.01 0.00 0.00 0.01 0.00 0.03 0.04 0.00 0.09 0.00 0.00 0.00 0.00 0.00 0.00 0.00 0.00 0.00 0.00 0.00 0.00 0.00 0.00 0.01 0.08 0.09 0.01 0.10 0.05 0.06 0.04 0.01 0.13 0.01 0.03 0.03 0.01 0.41 0.15 0.06 0.11 0.08 0.14 0.09 0.11 0.09 0.13 0.14 0.14 0.14 0.25 0.30
0.00 0.01 0.01 0.03 0.01 0.01 0.00 0.00 0.00 0.00 0.00 0.00 0.00 0.00 0.17 0.06 0.01 0.09 0.06 0.04 0.22 0.10 0.13 0.00 0.04 0.00 0.02 0.00 0.03 0.00 0.00 0.07 0.01 0.00 0.00 0.01 0.01 0.00 0.00 0.00 0.00 0.01 0.06 0.05 0.04 0.01 0.00 0.00 0.00 0.00 0.00 0.00 0.00 0.00 0.06 0.01 0.00 0.00 0.01 0.11 0.06 0.14 0.04 0.03 0.11 0.04 0.07 0.03 0.04 0.09 0.05 0.05 0.22 0.25 0.14 0.25 0.34 0.29 0.29 0.13 0.08 0.09 0.14 0.16 0.18 0.43 0.90 1.34
0.00 0.01 0.05 0.00 0.00 0.00 0.00 0.00 0.00 0.00 0.00 0.00 0.00 0.06 0.17 0.07 0.02 0.01 0.05 0.01 0.09 0.02 0.07 0.01 0.02 0.01 0.00 0.08 0.02 0.00 0.01 0.01 0.00 0.02 0.00 0.02 0.00 0.06 0.03 0.00 0.00 0.01 0.00 0.03 0.05 0.04 0.11 0.20 0.01 0.00 0.04 0.00 0.00 0.00 0.01 0.02 0.02 0.01 0.00 0.01 0.17 0.12 0.17 0.05 0.08 0.07 0.02 0.18 0.08 0.05 0.01 0.05 0.19 0.75 0.05 0.18 0.27 0.32 0.25 0.31 0.25 0.22 0.18 0.22 0.42 0.50 0.31 0.28
0.01 0.01 0.00 0.00 0.00 0.00 0.00 0.00 0.00 0.00 0.00 0.00 0.01 0.13 0.04 0.02 0.01 0.12 0.04 0.03 0.01 0.01 0.08 0.01 0.01 0.01 0.04 0.00 0.00 0.00 0.00 0.11 0.00 0.01 0.03 0.02 0.10 0.02 0.02 0.02 0.01 0.00 0.02 0.03 0.09 0.01 0.01 0.02 0.04 0.00 0.00 0.00 0.00 0.00 0.00 0.00 0.01 0.00 0.01 0.00 0.02 0.08 0.03 0.12 0.26 0.05 0.25 0.13 0.04 0.04 0.01 0.18 0.62 0.31 0.17 0.17 0.11 0.15 0.11 0.10 0.11 0.15 0.16 0.17 0.20 0.09 0.13 0.20
0.00 0.00 0.00 0.00 0.00 0.00 0.00 0.00 0.00 0.00 0.00 0.00 0.05 0.02 0.02 0.01 0.11 0.01 0.02 0.03 0.00 0.05 0.06 0.03 0.02 0.01 0.02 0.06 0.00 0.01 0.04 0.05 0.06 0.03 0.05 0.01 0.01 0.04 0.01 0.01 0.00 0.00 0.09 0.00 0.17 0.08 0.01 0.05 0.00 0.00 0.00 0.00 0.00 0.00 0.01 0.00 0.28 0.30 0.00 0.09 0.07 0.05 0.02 0.09 0.00 0.01 0.01 0.00 0.04 0.03 0.12 0.10 0.05 0.31 0.31 0.37 0.24 0.18 0.27 0.28 0.24 0.21 0.23 0.19 0.16 0.16 0.19 0.12
0.02 0.00 0.01 0.00 0.00 0.00 0.00 0.00 0.00 0.00 0.00 0.00 0.07 0.01 0.00 0.02 0.00 0.02 0.00 0.02 0.00 0.01 0.03 0.10 0.14 0.01 0.05 0.05 0.03 0.01 0.04 0.00 0.11 0.02 0.18 0.01 0.11 0.00 0.01 0.01 0.00 0.00 0.01 0.00 0.08 0.01 0.13 0.13 0.01 0.00 0.02 0.00 0.00 0.00 0.00 0.00 0.00 0.09 0.04 0.11 0.01 0.00 0.04 0.05 0.13 0.08 0.03 0.03 0.04 0.00 0.05 0.25 0.06 0.60 0.11 0.21 0.16 0.14 0.25 0.26 0.22 0.27 0.26 0.25 0.42 0.26 0.29 0.40
0.03 0.02 0.07 0.03 0.01 0.01 0.00 0.00 0.00 0.00 0.00 0.02 0.02 0.00 0.01 0.02 0.00 0.00 0.00 0.00 0.01 0.03 0.02 0.04 0.20 0.00 0.08 0.06 0.04 0.01 0.08 0.03 0.37 0.04 0.12 0.02 0.23 0.01 0.06 0.06 0.01 0.01 0.00 0.01 0.01 0.15 0.00 0.09 0.05 0.00 0.00 0.01 0.00 0.00 0.00 0.00 0.00 0.02 0.07 0.03 0.03 0.19 0.14 0.08 0.01 0.03 0.08 0.01 0.07 0.01 0.06 0.15 0.16 0.33 0.11 0.18 0.23 0.16 0.20 0.22 0.28 0.25 0.31 0.29 0.32 0.72 0.93 1.08
0.02 0.07 0.23 0.05 0.00 0.00 0.00 0.01 0.00 0.00 0.00 0.03 0.01 0.01 0.00 0.00 0.00 0.01 0.00 0.02 0.00 0.02 0.03 0.02 0.10 0.06 0.06 0.05 0.05 0.00 0.01 0.15 0.06 0.25 0.18 0.21 0.11 0.15 0.18 0.01 0.10 0.00 0.00 0.01 0.03 0.02 0.01 0.02 0.05 0.00 0.00 0.03 0.00 0.00 0.03 0.03 0.00 0.00 0.00 0.00 0.03 0.02 0.07 0.16 0.09 0.19 0.04 0.22 0.03 0.04 0.11 0.30 0.15 0.39 0.19 0.23 0.15 0.25 0.18 0.19 0.33 0.35 0.48 0.68 0.49 0.56 0.69 1.18
0.05 0.15 0.45 0.12 0.01 0.01 0.00 0.00 0.01 0.01 0.00 0.01 0.02 0.02 0.00 0.01 0.02 0.00 0.00 0.00 0.03 0.03 0.06 0.02 0.05 0.10 0.06 0.05 0.11 0.04 0.01 0.02 0.08 0.37 0.08 0.55 0.16 0.03 0.09 0.02 0.05 0.01 0.01 0.01 0.01 0.00 0.02 0.00 0.10 0.10 0.00 0.00 0.07 0.01 0.04 0.09 0.12 0.06 0.02 0.01 0.02 0.02 0.03 0.03 0.21 0.07 0.16 0.28 0.13 0.15 0.14 0.31 0.41 0.19 0.10 0.23 0.20 0.22 0.20 0.47 0.71 0.67 1.04 1.32 1.48 1.45 1.44 1.42
0.06 0.46 0.35 0.04 0.03 0.01 0.00 0.01 0.03 0.05 0.02 0.02 0.00 0.02 0.01 0.01 0.01 0.01 0.00 0.00 0.00 0.01 0.02 0.01 0.01 0.04 0.18 0.17 0.06 0.01 0.00 0.01 0.04 0.22 0.05 0.11 0.28 0.45 0.00 0.09 0.00 0.05 0.00 0.04 0.01 0.10 0.01 0.00 0.01 0.04 0.03 0.02 0.02 0.00 0.03 0.00 0.04 0.04 0.08 0.13 0.07 0.16 0.26 0.23 0.40 0.02 0.10 0.19 0.21 0.11 0.22 0.43 0.42 0.10 0.15 0.17 0.35 0.31 0.29 0.47 0.57 0.72 0.37 0.44 0.51 0.34 0.35 0.53
0.19 0.24 0.87 0.14 0.05 0.02 0.03 0.11 0.07 0.07 0.04 0.05 0.09 0.00 0.02 0.00 0.01 0.01 0.00 0.00 0.00 0.03 0.03 0.01 0.00 0.01 0.01 0.21 0.21 0.03 0.07 0.02 0.02 0.09 0.11 0.31 0.30 0.32 0.07 0.01 0.01 0.03 0.03 0.11 0.06 0.12 0.09 0.06 0.03 0.02 0.07 0.25 0.03 0.06 0.00 0.01 0.00 0.03 0.03 0.16 0.01 0.13 0.13 0.27 0.28 0.39 0.16 0.17 0.22 0.28 0.27 0.60 0.17 0.21 0.41 0.47 0.54 0.25 0.48 0.43 0.56 0.56 0.78 1.10 0.48 0.28 0.37 0.55
0.24 0.70 0.60 0.39 0.10 0.03 0.05 0.15 0.07 0.08 0.12 0.09 0.03 0.01 0.00 0.00 0.01 0.01 0.01 0.01 0.02 0.01 0.01 0.01 0.00 0.00 0.02 0.01 0.06 0.08 0.01 0.04 0.00 0.09 0.06 0.12 0.17 0.08 0.04 0.04 0.03 0.02 0.00 0.17 0.00 0.12 0.01 0.02 0.03 0.02 0.14 0.09 0.02 0.01 0.02 0.00 0.01 0.04 0.03 0.01 0.08 0.19 0.15 0.27 0.36 0.45 0.24 0.24 0.16 0.19 0.22 0.49 0.31 0.20 0.40 0.47 0.46 0.38 0.78 0.98 0.68 0.37 0.42 0.43 0.41 0.59 0.49 0.44
0.39 0.98 0.62 0.41 0.15 0.08 0.23 0.24 0.20 0.09 0.08 0.11 0.03 0.02 0.01 0.03 0.01 0.01 0.00 0.01 0.01 0.03 0.02 0.01 0.00 0.00 0.01 0.02 0.01 0.10 0.06 0.08 0.04 0.01 0.06 0.05 0.26 0.01 0.01 0.02 0.02 0.09 0.09 0.32 0.17 0.26 0.51 0.39 0.08 0.25 0.11 0.08 0.11 0.07 0.03 0.03 0.03 0.09 0.07 0.08 0.06 0.04 0.10 0.13 0.10 0.16 0.24 0.15 0.27 0.28 0.37 0.36 0.49 0.47 0.32 0.47 0.59 0.81 0.73 0.53 0.66 0.55 0.39 0.44 0.58 0.59 0.43 0.70
0.70 0.73 0.80 0.48 0.25 0.34 0.40 0.17 0.20 0.06 0.22 0.07 0.09 0.10 0.07 0.00 0.01 0.02 0.03 0.11 0.02 0.01 0.01 0.02 0.00 0.02 0.00 0.00 0.01 0.01 0.03 0.03 0.11 0.03 0.02 0.07 0.40 0.01 0.01 0.01 0.01 0.17 0.05 0.05 0.03 0.13 0.15 0.25 0.16 0.26 0.33 0.18 0.32 0.26 0.18 0.18 0.09 0.05 0.01 0.02 0.02 0.02 0.15 0.10 0.12 0.12 0.19 0.11 0.10 0.46 0.72 0.29 0.44 0.49 0.43 0.30 0.22 0.42 0.59 0.57 1.01 0.86 0.76 0.99 1.51 1.77 1.56 0.85
0.89 0.90 0.60 0.98 0.93 0.21 0.07 0.04 0.13 0.20 0.16 0.14 0.06 0.12 0.05 0.14 0.01 0.00 0.01 0.03 0.01 0.02 0.00 0.01 0.03 0.00 0.00 0.00 0.01 0.01 0.01 0.01 0.06 0.05 0.04 0.29 0.26 0.05 0.02 0.05 0.00 0.03 0.04 0.03 0.06 0.05 0.33 0.10 0.26 0.35 0.32 0.47 0.26 0.33 0.19 0.05 0.08 0.20 0.10 0.05 0.06 0.04 0.20 0.31 0.28 0.27 0.26 0.13 0.25 0.41 0.36 0.45 0.45 0.53 0.34 0.37 0.46 0.52 0.69 0.52 0.59 0.50 0.43 0.26 0.43 0.56 0.63 0.67
0.41 0.76 0.40 0.36 0.32 0.71 0.37 0.25 0.18 0.11 0.41 0.27 0.09 0.09 0.20 0.02 0.10 0.04 0.00 0.12 0.01 0.02 0.01 0.07 0.09 0.02 0.02 0.00 0.05 0.02 0.06 0.05 0.02 0.02 0.13 0.10 0.32 0.34 0.02 0.01 0.02 0.01 0.01 0.02 0.02 0.11 0.19 0.14 0.22 0.21 0.24 0.19 0.18 0.25 0.15 0.03 0.30 0.19 0.15 0.09 0.09 0.04 0.10 0.17 0.13 0.43 0.20 0.24 0.45 0.36 0.42 0.15 0.44 0.46 0.44 0.32 0.41 0.49 0.33 0.55 0.34 0.31 0.24 0.21 0.50 0.58 0.56 0.39
0.34 0.76 0.33 0.70 0.47 0.48 0.46 0.45 0.11 0.84 0.27 0.18 0.17 0.05 0.13 0.11 0.07 0.21 0.07 0.03 0.04 0.01 0.05 0.02 0.16 0.11 0.01 0.09 0.16 0.03 0.06 0.06 0.04 0.04 0.05 0.12 0.22 0.98 0.31 0.12 0.14 0.10 0.02 0.06 0.05 0.14 0.54 0.22 0.20 0.19 0.26 0.17 0.27 0.25 0.17 0.19 0.18 0.25 0.40 0.39 0.24 0.11 0.27 0.30 0.23 0.11 0.16 0.36 0.42 0.46 0.40 0.35 0.36 0.43 0.30 0.27 0.31 0.49 0.40 0.55 0.34 0.38 0.39 0.28 0.36 0.35 0.23 0.34
0.59 0.74 0.78 0.46 0.37 0.32 0.28 0.41 0.36 0.29 0.39 0.25 0.12 0.16 0.11 0.27 0.16 0.12 0.09 0.16 0.06 0.08 0.01 0.05 0.08 0.03 0.04 0.02 0.08 0.10 0.12 0.23 0.06 0.07 0.11 0.34 0.10 0.36 0.35 0.41 0.26 0.37 0.06 0.08 0.09 0.07 0.08 0.42 0.40 0.32 0.32 0.39 0.19 0.20 0.23 0.24 0.19 0.21 0.26 0.21 0.31 0.34 0.34 0.27 0.24 0.29 0.25 0.27 0.27 0.47 0.45 0.66 0.40 0.46 0.36 0.42 0.29 0.49 0.53 0.40 0.25 0.61 1.52 0.46 0.67 0.72 0.39 0.22
0.78 0.81 0.60 0.23 0.43 0.23 0.18 0.32 0.57 0.42 0.24 0.10 0.13 0.12 0.14 0.14 0.44 0.20 0.11 0.12 0.06 0.13 0.06 0.18 0.08 0.12 0.08 0.04 0.10 0.26 0.18 0.12 0.15 0.11 0.23 0.11 0.10 0.12 0.37 0.43 0.51 0.51 0.46 0.39 0.13 0.17 0.02 0.73 0.06 0.42 0.35 0.40 0.40 0.22 0.31 0.43 0.32 0.40 0.32 0.24 0.30 0.40 0.40 0.31 0.17 0.21 0.21 0.39 0.52 0.18 0.30 0.49 0.64 0.43 0.28 0.32 0.47 0.64 0.24 1.21 0.74 0.49 0.73 0.66 0.71 0.83 0.73 0.42
0.69 0.46 0.75 0.35 0.18 0.18 0.08 0.13 0.16 0.32 0.48 0.30 0.14 0.18 0.19 0.16 0.31 0.28 0.24 0.12 0.05 0.05 0.05 0.17 0.05 0.15 0.05 0.10 0.09 0.12 0.10 0.06 0.04 0.13 0.18 0.05 0.17 0.14 0.14 0.32 0.05 0.20 0.13 0.40 0.45 1.49 0.37 0.84 0.23 0.40 0.33 0.46 0.43 0.46 0.59 0.37 0.37 0.55 0.58 0.43 0.28 0.41 0.46 0.37 0.45 0.75 0.33 0.40 0.31 0.14 0.34 0.45 0.73 0.55 0.29 0.38 0.41 0.26 0.31 0.80 0.96 0.91 0.90 0.68 0.57 0.80 0.65 0.53
0.44 0.40 0.70 0.30 0.18 0.04 0.16 0.03 0.05 0.10 0.25 0.38 0.32 0.25 0.21 0.39 0.15 0.15 0.07 0.09 0.04 0.01 0.05 0.05 0.12 0.33 0.15 0.13 0.13 0.12 0.08 0.06 0.02 0.02 0.04 0.06 0.04 0.15 0.08 0.03 0.02 0.04 0.11 0.15 0.49 0.32 0.36 0.37 0.22 0.44 0.26 0.24 0.35 0.44 0.57 0.89 0.77 0.41 0.47 0.43 0.33 0.33 0.26 0.39 0.28 0.70 0.54 0.65 0.33 0.31 0.25 0.24 0.40 0.38 0.52 0.65 0.48 0.59 0.57 0.52 0.72 0.95 1.20 1.15 0.98 0.94 0.58 0.34